Regional Weather Roundup
Issued by NWS

Home | Current Version | Previous Version | Text Only | Print | Product List | Glossary Off
Versions: 1 2 3 4 5 6 7 8 9 10 11 12 13 14 15 16 17 18 19 20 21 22 23 24 25 26 27 28 29 30 31 32 33 34 35 36 37 38 39 40 41 42 43 44 45 46 47 48 49 50

000
ASUS43 KFSD 291502
RWRSD

WEATHER ROUNDUP FOR SOUTH DAKOTA
NATIONAL WEATHER SERVICE SIOUX FALLS SD
1000 AM CDT THU SEP 29 2016

NOTE: "FAIR" INDICATES FEW OR NO CLOUDS BELOW 12,000 FEET WITH NO
SIGNIFICANT WEATHER AND/OR OBSTRUCTIONS TO VISIBILITY.


SDZ001>005-009-010-012>017-291600-
NORTHWEST AND NORTH CENTRAL SOUTH DAKOTA

CITY           SKY/WX    TMP DP  RH WIND       PRES   REMARKS
BUFFALO          N/A     56  41  57 SE15      30.22F
FAITH            N/A     54  44  69 SE20      30.32F
MOBRIDGE       SUNNY     55  46  71 S13       30.38S
$$

SDZ012>016-024>037-041>051-057-063-072>074-291600-
SOUTHWEST AND SOUTH CENTRAL SOUTH DAKOTA

CITY           SKY/WX    TMP DP  RH WIND       PRES   REMARKS
RAPID CTY ARPT SUNNY     52  39  61 SE10      30.31S
PIERRE         SUNNY     53  45  74 SE13      30.40R
CUSTER         SUNNY     60  40  47 CALM      30.39S
ELLSWORTH AFB  SUNNY     57  37  46 S14       30.30S
PHILIP         SUNNY     54  45  71 SE9       30.35S
PINE RIDGE     SUNNY     59  41  51 SW8       30.34S
WINNER         FAIR      58  46  64 S8        30.43S
$$

SDZ004>011-016>023-039-040-291600-
NORTHEAST SOUTH DAKOTA

CITY           SKY/WX    TMP DP  RH WIND       PRES   REMARKS
ABERDEEN       SUNNY     53  46  77 S12       30.47S
WATERTOWN      SUNNY     55  48  77 SE6       30.48R
SISSETON         N/A     52  48  86 S3        30.49R
$$

SDZ017-020-022-023-036>040-048>070-291600-
SOUTHEAST SOUTH DAKOTA

CITY           SKY/WX    TMP DP  RH WIND       PRES   REMARKS
SIOUX FALLS    SUNNY     54  49  83 CALM      30.48R
HURON          SUNNY     53  47  79 S9        30.47R
MITCHELL       SUNNY     52  46  80 SE5       30.48S
YANKTON        SUNNY     54  48  82 E3        30.46S
$$

ABBREVIATIONS USED IN REMARKS
   TC - TEMPERATURE IN CELSIUS
  WCI - WIND CHILL INDEX
   HX - HEAT INDEX
  VSB - VISIBILITY




USA.gov is the U.S. government's official web portal to all federal, state and local government web resources and services.